Location: Navalespino
(40.5894°N, 4.2660°W)
Time: 01:24:46
(UTC+00:00)

Cosmos 1782 Rocket - Pass Details

Date: 18 April 2024
Orbit: 603 x 629 km, 82.5° (Epoch: 28 May)

Event Time Altitude Azimuth Distance (km) Brightness Sun altitude
Rises 19:26:17 0° 185° (S) 2,862 6.8 -5.6°
Reaches altitude 10° 19:28:29 10° 184° (S) 1,966 6.0 -6.0°
Maximum altitude 19:32:51 85° 97° (E) 626 3.6 -6.8°
Drops below altitude 10° 19:37:17 10° 9° (N) 1,998 6.3 -7.5°
Sets 19:39:32 0° 9° (N) 2,912 7.2 -7.9°
